Theta_e
321 327 328 327 326 329 328 328 331 332 325 326 327 328 330 329 330 331 332 331 330 329 329 330 332 333 333 333 334 333 332 332 331 331 330 328 328 322 322 321 323 322 320 317
323 329 325 324 326 329 328 329 333 325 320 325 327 329 328 327 330 331 331 331 330 328 328 329 331 332 333 333 333 334 333 333 332 330 328 328 326 322 319 318 323 321 318 313
328 327 324 325 328 330 329 333 334 334 319 320 325 328 329 328 325 329 331 331 330 329 328 329 331 331 332 333 334 334 334 334 333 330 329 325 319 317 315 317 318 317 313 313
325 322 326 327 328 327 331 328 331 332 330 336 324 334 330 329 325 325 329 331 331 330 329 330 331 331 332 333 333 334 334 334 333 332 329 321 321 319 318 318 314 312 311 311
317 324 328 329 328 325 327 320 324 326 333 332 324 331 331 330 331 324 325 327 330 330 330 330 329 330 331 332 333 334 334 334 333 332 327 323 326 325 318 315 313 309 308 309
316 315 321 320 321 323 314 321 320 322 326 333 328 333 336 332 331 330 325 326 327 328 330 330 329 329 330 332 332 333 333 333 333 332 327 326 326 321 318 315 308 306 304 307
313 313 314 315 315 314 319 323 326 329 328 338 331 331 334 329 326 327 329 326 325 326 327 328 330 329 328 328 327 328 330 331 331 329 326 326 324 321 321 314 309 306 303 302
321 320 318 317 317 318 320 325 329 333 333 331 316 333 332 327 326 321 322 326 326 322 324 324 325 325 324 322 321 322 324 327 328 325 325 324 320 320 319 313 312 306 304 301
323 318 312 316 316 317 318 325 318 319 314 329 322 318 316 316 319 318 314 312 314 322 319 319 319 318 318 317 317 318 320 323 324 323 323 318 316 318 316 311 308 306 303 301
317 320 311 315 314 314 318 317 322 321 330 331 325 323 325 316 317 318 314 311 312 313 314 312 313 313 314 315 316 317 319 321 321 320 316 315 316 315 311 309 308 304 302 302
314 317 313 313 318 318 318 320 320 322 322 329 329 323 313 319 316 315 313 313 310 311 312 311 312 312 313 314 314 316 318 319 318 317 313 314 313 312 311 310 305 303 303 299
314 315 318 316 312 310 317 320 320 326 324 317 317 324 307 308 308 307 311 310 312 311 311 311 312 312 312 312 312 313 313 314 314 313 312 312 311 311 309 306 304 302 301 298
314 316 320 318 315 311 317 317 319 320 319 323 325 324 305 308 310 309 308 308 310 310 310 310 311 311 311 311 310 310 310 310 310 311 311 310 309 308 306 304 303 302 300 297
311 314 319 319 317 316 317 318 317 320 325 324 323 322 313 309 310 309 307 307 309 309 309 309 310 311 311 311 309 309 308 308 307 307 308 307 307 306 305 303 302 301 299 296
309 316 312 310 311 313 316 318 318 320 320 324 323 320 320 308 308 309 308 307 308 308 308 309 308 309 310 309 308 308 307 306 305 305 306 306 305 304 303 302 301 300 298 295
310 315 314 313 310 312 314 316 319 319 319 319 320 319 310 308 306 307 308 306 306 307 308 308 309 308 307 307 307 307 306 304 303 303 304 304 304 302 301 300 300 300 298 296
313 313 315 319 310 313 316 312 315 318 318 319 322 320 314 310 310 307 307 308 308 307 307 307 307 307 306 306 306 305 304 301 301 301 302 302 303 302 301 301 300 300 298 296
312 313 314 314 314 320 310 304 309 313 313 316 319 318 318 317 313 311 307 308 307 307 308 307 306 306 305 305 304 303 302 300 300 300 301 301 302 301 301 300 301 299 297 295
310 313 313 317 317 314 310 305 307 311 310 307 310 311 311 311 311 310 310 306 306 307 306 307 307 306 306 305 304 303 301 300 299 299 299 300 301 301 301 300 300 298 296 294
309 309 315 312 317 318 307 304 303 305 309 302 300 302 304 306 309 309 305 304 305 305 305 305 305 307 306 304 303 302 300 299 298 298 300 300 301 301 301 301 300 298 295 295
312 312 314 314 316 315 306 303 303 310 309 301 298 299 300 305 306 304 302 302 302 301 300 300 302 303 305 304 303 300 299 299 299 301 300 299 300 300 300 300 298 297 294 293
309 312 314 314 315 315 303 303 307 306 302 299 297 299 299 300 301 301 301 300 299 298 297 298 299 300 301 302 301 299 299 300 300 301 299 298 298 298 297 296 295 294 292 291
309 308 312 311 313 305 303 305 305 302 303 302 298 300 299 299 301 300 299 298 296 294 294 293 295 297 297 299 300 299 300 300 300 299 298 297 296 295 295 294 293 292 291 291
306 305 309 309 308 306 305 304 302 301 301 301 299 299 297 300 300 298 297 295 294 291 290 290 292 292 292 294 296 298 299 299 299 298 297 296 295 294 293 293 293 292 292 291
304 303 306 306 305 305 304 303 305 303 300 300 299 296 296 298 299 296 295 292 290 289 288 290 290 290 288 291 294 296 297 297 297 296 295 295 294 294 293 292 292 292 292 292
302 304 306 305 307 307 307 304 302 303 302 301 299 298 295 293 296 292 290 287 288 288 287 287 286 286 285 287 289 291 294 295 296 295 293 293 293 292 293 293 292 292 291 292
Wind_Speed
7 11 18 22 24 14 21 21 19 27 11 17 17 19 13 14 17 19 18 17 17 19 21 25 25 24 24 24 24 24 24 23 23 21 20 16 14 11 10 9 10 8 6 5
5 21 28 22 20 12 21 20 16 7 7 12 18 19 19 12 18 21 20 19 18 18 19 23 26 26 26 26 26 26 25 25 26 23 20 15 14 11 9 12 12 11 7 6
20 10 22 18 16 18 8 20 19 12 4 2 5 15 19 15 14 16 19 18 19 20 20 20 24 27 27 28 28 27 27 26 26 21 20 13 13 12 11 12 12 10 8 8
8 2 21 18 17 16 17 10 12 14 15 13 9 10 21 21 18 18 19 18 20 20 20 19 22 26 28 28 27 27 27 27 26 25 23 22 17 15 12 18 12 12 11 10
3 12 20 20 24 21 5 7 5 3 14 7 1 6 17 22 24 23 21 21 20 20 21 21 21 28 29 27 27 26 26 26 25 27 23 21 17 14 15 16 16 13 12 11
3 4 3 2 9 13 7 12 11 5 2 7 13 13 16 22 23 23 21 20 20 20 19 19 24 24 25 24 23 24 25 26 26 26 24 22 20 21 22 19 16 14 12 14
4 3 2 6 11 4 6 12 4 4 3 3 20 15 15 13 19 21 22 21 19 18 18 17 17 20 23 25 23 22 23 24 25 25 24 23 23 24 26 24 20 18 16 15
3 3 3 6 5 8 12 10 4 6 6 8 3 12 10 20 15 12 14 13 20 18 16 17 17 20 21 22 22 22 22 23 23 23 23 22 23 26 25 21 21 21 17 18
3 4 2 3 3 8 5 7 1 2 1 5 8 6 7 8 9 10 11 9 10 14 14 14 13 19 20 20 21 21 21 21 21 21 22 21 24 27 24 21 22 19 18 20
2 4 3 3 5 4 3 4 3 2 6 6 8 10 9 10 16 16 15 14 11 10 11 10 11 15 16 17 17 17 19 20 20 22 23 25 28 23 20 23 21 21 21 20
2 2 1 1 4 7 3 3 5 2 3 3 3 4 5 14 14 15 14 13 10 10 10 11 10 13 14 14 16 17 19 20 22 22 21 25 24 23 22 22 21 21 21 22
2 3 3 2 3 3 8 7 11 3 4 2 2 2 5 5 6 4 5 8 7 9 9 9 11 14 15 16 17 19 19 20 21 20 20 23 22 22 22 20 21 21 22 22
4 2 5 3 1 1 6 9 14 9 1 10 5 2 1 3 5 4 1 4 8 8 11 10 11 12 16 18 17 17 18 19 19 19 19 19 20 21 21 21 22 23 23 22
4 2 2 2 3 7 5 11 12 12 5 5 11 8 3 5 4 4 2 2 5 7 9 10 10 10 15 17 17 17 17 17 19 17 18 20 20 21 21 23 23 23 23 24
2 2 2 3 3 1 3 13 18 20 18 9 7 11 9 5 6 4 3 3 5 5 6 6 9 9 15 16 16 17 18 18 18 19 20 20 22 21 23 24 23 23 24 23
2 2 2 2 4 1 4 8 18 20 18 19 12 11 6 4 1 3 3 5 5 7 9 10 9 9 12 17 19 19 19 20 22 21 20 20 21 22 23 24 24 24 25 23
1 3 1 2 3 1 5 11 14 13 16 14 18 17 6 5 8 6 4 7 7 8 10 10 10 10 16 19 20 20 20 20 22 20 21 22 23 25 25 25 25 26 26 25
3 3 1 2 1 4 2 4 2 14 9 13 16 13 13 14 14 9 2 3 3 3 1 5 7 14 17 17 19 18 20 22 25 24 25 25 26 27 26 26 27 27 27 28
1 2 2 1 3 6 3 3 2 3 4 5 11 13 13 11 7 15 9 5 6 4 4 7 12 13 14 19 20 21 23 24 25 27 28 28 28 28 29 30 30 29 29 28
1 3 1 2 2 2 2 2 3 2 3 3 3 3 5 5 8 9 5 8 9 9 8 7 9 11 17 21 26 27 27 28 28 30 31 30 30 30 30 30 31 30 29 27
2 1 3 3 2 5 3 1 0 2 2 2 2 4 4 3 5 7 9 10 4 6 11 11 10 16 20 22 28 28 28 32 30 29 29 28 29 30 29 28 29 29 27 25
2 2 2 2 3 3 2 3 2 3 2 1 2 3 5 7 10 9 7 6 5 5 8 7 7 9 12 19 27 25 28 25 24 25 26 26 27 27 27 25 25 23 22 21
3 2 1 3 1 1 2 2 1 4 4 3 3 4 5 7 6 8 7 6 4 6 7 7 6 8 8 14 22 23 22 19 20 22 24 24 23 24 23 23 21 18 18 19
3 2 1 3 2 3 4 3 4 3 4 4 4 5 4 5 5 6 5 5 4 5 6 5 2 6 6 9 15 17 17 17 20 21 21 20 19 19 19 18 18 20 21 21
2 2 5 6 6 5 8 8 8 6 7 6 5 4 6 6 4 2 3 4 4 4 5 4 3 6 5 7 12 13 16 19 21 19 18 17 17 17 16 15 16 17 17 18
7 9 6 5 4 2 2 3 4 7 11 7 4 4 2 1 8 2 3 3 5 4 5 8 9 10 8 10 12 14 18 19 22 21 19 18 17 16 14 13 10 10 12 10
Wind_Direction
183 169 184 188 200 206 200 202 201 204 178 190 201 218 190 195 203 207 189 192 188 191 184 185 188 188 190 192 188 189 189 188 185 185 185 189 186 189 188 192 194 193 206 211
174 194 180 180 190 193 198 200 223 160 167 211 202 216 226 201 211 206 203 195 193 190 181 183 186 189 194 194 194 194 193 190 190 190 190 188 187 189 184 196 199 205 199 190
186 164 170 175 176 202 200 201 207 200 149 251 195 234 220 209 224 225 223 211 197 193 185 185 187 194 195 199 198 198 197 195 194 192 184 178 169 167 187 192 199 197 192 192
229 252 164 172 180 189 211 209 204 217 173 205 223 234 214 212 210 212 211 220 207 198 193 189 192 196 199 202 201 202 200 199 197 194 187 186 190 178 195 199 190 188 193 189
217 170 163 174 194 186 202 140 160 280 185 143 279 249 237 197 210 208 207 209 214 207 199 194 193 198 202 200 201 201 201 202 199 198 195 196 199 191 187 184 188 188 187 186
49 13 122 131 131 171 144 97 57 44 22 200 185 198 227 230 213 210 206 213 206 208 205 202 198 197 201 197 200 197 200 202 201 201 198 201 191 190 185 182 177 183 189 188
32 9 44 110 85 54 128 133 117 187 189 238 180 204 229 212 202 220 209 205 207 202 202 197 196 191 197 191 192 194 197 200 200 198 200 200 195 200 193 186 180 182 188 187
144 158 142 164 144 168 163 157 174 165 186 164 231 219 223 235 259 215 216 226 209 199 199 195 195 190 194 188 192 193 195 198 197 196 199 195 200 199 192 192 188 191 190 191
108 65 346 53 106 133 173 221 82 32 162 172 196 227 282 233 242 185 214 215 233 202 190 188 186 189 190 188 190 190 190 192 192 196 191 188 196 191 187 180 190 186 186 191
76 109 9 43 71 360 214 150 174 213 183 221 196 232 244 194 211 211 203 206 208 208 190 187 186 186 188 184 184 183 182 181 183 186 183 193 188 185 185 190 189 186 189 186
9 217 64 222 191 157 117 167 233 258 293 284 238 233 7 204 212 207 210 202 177 172 184 185 174 174 175 171 173 172 170 169 174 175 177 181 181 185 188 191 190 193 190 184
59 94 123 78 42 353 223 212 203 212 187 288 27 291 341 35 39 16 60 174 157 154 164 164 159 160 163 165 169 169 167 170 175 174 174 179 182 184 187 187 190 192 189 188
151 132 123 104 109 14 209 204 215 245 312 218 203 161 30 114 107 98 79 164 166 153 159 158 156 167 170 173 176 173 172 173 171 172 172 173 178 184 185 186 192 192 191 187
64 161 283 188 51 131 185 199 210 211 214 210 231 257 99 70 58 89 143 210 178 173 167 170 158 169 175 176 180 179 178 177 177 176 174 178 183 186 186 193 194 189 190 193
104 113 110 46 355 163 205 191 201 216 225 227 232 230 271 63 61 42 78 138 161 173 176 165 171 177 180 179 181 189 187 182 179 178 178 184 189 187 189 193 191 189 193 199
182 125 138 117 47 324 276 233 208 225 230 242 264 289 12 320 47 287 163 154 201 192 196 203 193 178 188 185 188 190 188 183 185 184 183 183 189 187 189 191 191 191 198 198
104 132 142 126 354 324 256 232 214 225 229 233 235 238 301 315 291 230 223 173 195 200 199 198 193 188 190 195 189 186 186 183 185 187 189 189 191 192 195 194 193 197 201 203
129 110 29 81 216 229 35 12 274 222 228 228 246 251 251 255 282 326 106 297 330 295 238 198 194 194 194 189 186 185 184 188 193 193 195 197 195 196 197 197 199 202 204 208
57 132 112 225 229 322 135 46 42 165 259 293 262 260 263 277 305 281 284 270 261 276 238 233 221 202 185 184 185 184 188 195 198 199 205 203 200 199 200 201 203 206 208 212
85 39 347 154 260 273 61 75 339 296 245 11 354 338 317 275 244 272 31 360 323 304 275 234 226 198 191 196 192 190 193 197 200 203 209 207 203 205 206 208 209 211 214 220
130 149 233 187 234 279 68 1 226 147 34 350 350 342 328 267 285 334 316 300 273 299 307 291 230 215 207 201 194 192 194 203 205 206 209 208 208 210 214 215 215 217 220 225
246 194 194 165 228 258 146 112 214 58 50 335 287 279 287 287 295 293 293 290 309 310 312 303 277 227 202 199 197 192 200 208 204 205 209 211 212 213 215 217 219 220 225 233
262 262 270 238 344 356 346 326 170 161 169 202 216 240 242 275 276 300 298 312 317 318 310 301 263 202 194 195 201 202 202 202 197 197 206 211 213 215 217 217 219 220 227 233
212 107 216 317 227 263 240 253 251 211 251 275 239 264 228 245 280 295 301 312 321 330 322 323 186 162 166 192 200 210 199 193 190 190 196 201 204 207 212 216 220 223 226 233
338 159 217 247 272 269 252 234 240 227 232 252 267 256 285 295 283 285 320 323 333 356 7 22 89 113 116 151 163 172 178 179 173 175 175 180 190 195 200 207 216 221 235 239
202 217 215 249 175 221 283 8 333 245 248 226 227 277 265 303 311 304 95 12 347 34 64 80 92 110 110 122 122 136 154 167 163 158 161 167 167 170 173 185 195 212 228 235